Epoch 2023 Feb. 25.0 TT = JDT 2460000.5 T 2021 Oct. 18.22351 TT Rudenko q 5.1803303 (2000.0) P Q z -0.0000616 Peri. 10.60551 -0.80605771 +0.27304238 +/-0.0000065 Node 147.40939 +0.44607842 -0.30279130 e 1.0003189 Incl. 102.87564 +0.38895375 +0.91310749 >From 19 observations 2022 Jan. 4-Nov. 24, mean residual 0".3.
m1 = 11.0 + 5 logΔ + 10.0 log r